Miscellaneous Local Product
Issued by NWS North Platte, NE

Home | Current Version | Previous Version | Text Only | Print | Product List | Glossary On
Versions: 1 2 3 4 5 6 7 8 9 10 11 12 13 14 15 16 17 18 19 20 21 22 23 24 25 26 27 28 29 30 31 32 33 34 35 36 37 38 39 40 41 42 43 44 45 46 47 48 49 50
000
AXUS43 KLBF 240610
MISLBF


WESTERN AND NORTH CENTRAL NEBRASKA HOURLY WEATHER ROUNDUP
NATIONAL WEATHER SERVICE NORTH PLATTE NE
100 AM CDT THU MAY 24 2018

NOTE: "FAIR" INDICATES FEW OR NO CLOUDS BELOW 12,000 FEET WITH NO
SIGNIFICANT WEATHER AND/OR OBSTRUCTIONS TO VISIBILITY.

NOTE: STATIONS NOT REPORTING VARIABLES SUCH AS SKY/WEATHER OR
PRESSURE ARE PROVIDED BY RAWS AND APRS NETWORKS AND ARE NOT UNDER
NATIONAL WEATHER SERVICE QUALITY CONTROL.

...OBSERVATIONS IN AND NEAR THE EASTERN PANHANDLE OF NEBRASKA...

CITY           SKY/WX    TMP DP  RH WIND       PRES   REMARKS
PINE RIDGE     CLOUDY    58  52  80 E7        29.95R
GORDON         FAIR      58  52  79 SE6       29.99R
CHADRON        MOCLDY    53  51  93 SE8       29.96R
ALLIANCE       MOCLDY    57  51  80 E10       29.98S
SIDNEY         MOCLDY    60  53  77 N10       30.00R
CRESCENT LAKE    N/A     60  53  77 NE9         N/A
$$

...OBSERVATIONS IN NORTHERN NEBRASKA AND FAR SOUTHERN SOUTH DAKOTA...

CITY           SKY/WX    TMP DP  RH WIND       PRES   REMARKS
WINNER         LGT RAIN  71  56  58 SW20G26   29.96R
VALENTINE      LGT RAIN  64  59  83 SW10      30.04R
AINSWORTH      RAIN      62  59  90 SW10      30.03R
O`NEILL        CLOUDY    73  63  70 S9        29.97R
THEDFORD       CLOUDY    62  58  85 NW5       30.03R
BROKEN BOW     MOCLDY    68  60  75 SE10      29.98R
ORD            MOCLDY    69  62  78 SE7       29.96S
ALBION         PTCLDY    73  64  72 S12       30.00R
VALENTINE NWR    N/A     60  58  92 SE8G16      N/A
HALSEY           N/A     62  60  93 NW9G20      N/A
BUTTE            N/A     72  62  71 S16         N/A
CHAMBERS         N/A     69  62  79 S3          N/A
EWING            N/A     73  64  73 S7          N/A
$$

...OBSERVATIONS IN SOUTHWEST NEBRASKA AND FAR NORTHEAST COLORADO...

CITY           SKY/WX    TMP DP  RH WIND       PRES   REMARKS
WRAY           FAIR      64  54  68 S9        29.96S
HOLYOKE        FAIR      66  55  68 SE13      29.94S
IMPERIAL       CLOUDY    68  59  73 SE12      29.94R
OGALLALA       MOCLDY    66  60  80 E7        29.94R
NORTH PLATTE   CLOUDY    68  60  75 SE9       29.95F
MCCOOK         CLOUDY    70  57  63 S15       29.97R
LEXINGTON      PTCLDY    69  60  74 S12       29.99R
STAPLETON        N/A     61  57  85 CALM        N/A
GOTHENBURG       N/A     71  56  58 SE8         N/A
CALLAWAY         N/A     69  61  76 S15         N/A
$$

...OBSERVATIONS IN CENTRAL LINCOLN COUNTY AREA...

CITY           SKY/WX    TMP DP  RH WIND       PRES   REMARKS
N.P. AIRPORT   CLOUDY    68  60  75 SE9       29.95F
N.P. DOWNTOWN    N/A     70  60  70 SE3         N/A
N.P. SOUTHEAST   N/A     70  60  70 SE6         N/A
$$

...OBSERVATIONS ACROSS THE ROCKIES AND WESTERN HIGH PLAINS...

CITY           SKY/WX    TMP DP  RH WIND       PRES   REMARKS
RAPID CITY     MOCLDY    61  46  57 W8        29.90R
SCOTTSBLUFF    PTCLDY    56  50  80 SE5       29.99R
CHEYENNE       PTCLDY    51  43  74 W5        30.10R
DENVER         PTCLDY    62  46  55 NW12      30.04R
BERTHOUD PASS  FAIR      34  25  69 NW20      30.48S WCI  22
COPPER MTN     PTCLDY    43  19  39 W7        30.47S
MONARCH PASS   CLEAR     39  18  41 MISG      30.56S
ASPEN          CLEAR     46  25  43 SW10      30.22S
STEAMBOAT      FAIR      48  36  61 CALM      30.18R
LARAMIE        CLEAR     42  37  82 S7        30.16R
CASPER         PTCLDY    47  44  90 W8        30.00F
$$

...OBSERVATIONS ACROSS THE NORTHERN PLAINS...

CITY           SKY/WX    TMP DP  RH WIND       PRES   REMARKS
BISMARCK       MOCLDY    67  63  87 S5        29.83F
FARGO          FAIR      71  63  75 SE15      29.91S
PIERRE         CLOUDY    65  59  81 W10       29.89R
SIOUX FALLS    CLOUDY    76  61  59 S15       29.97R
$$

...OBSERVATIONS ACROSS THE CENTRAL AND SOUTHERN PLAINS...

CITY           SKY/WX    TMP DP  RH WIND       PRES   REMARKS
OMAHA          CLOUDY    77  62  59 S7        30.02R
GRAND ISLAND   CLOUDY    74  63  68 S15G25    30.00R
KANSAS CITY    MOCLDY    71  64  78 S10       30.07S
WICHITA        CLOUDY    71  60  68 S14       30.01F
DODGE CITY     CLOUDY    72  53  51 SW16G29   30.01S
OKLAHOMA CITY  PTCLDY    71  68  90 SE8       30.06F
DALLAS         PTCLDY    79  67  66 S9        30.06S
AMARILLO       LGT RAIN  59  56  89 N16       30.17F
$$




USA.gov is the U.S. government's official web portal to all federal, state and local government web resources and services.